Weather History for KAVL - December, 2008

Change the Weather History Date:

Sunday, December 28, 2008

  Actual Average Record
Temperature  
Mean Temperature 52 °F 37 °F  
Max Temperature 61 °F 47 °F 73 °F (1889)
Min Temperature 43 °F 28 °F 0 °F (1925)
Degree Days  
Heating Degree Days 13 28  
Month to date heating degree days 646 710  
Since 1 July heating degree days 1665 1577  
Cooling Degree Days 0 0  
Month to date cooling degree days 0 0  
Year to date cooling degree days 875 863  
Growing Degree Days 2 (Base 50)    
Moisture  
Dew Point 51 °F    
Average Humidity 88    
Maximum Humidity 100    
Minimum Humidity 76    
Precipitation  
Precipitation 0.18 in 0.10 in 2.67 in (1958)
Month to date precipitation 4.75 3.28  
Year to date precipitation 35.64 45.26  
Snow  
Snow 0.00 in 0.10 in 1.20 in (1967)
Month to date snowfall T 0.7  
Since 1 July snowfall T 0.8  
Snow Depth -    
Sea Level Pressure  
Sea Level Pressure 30.15 in    
Wind  
Wind Speed 11 mph (South)    
Max Wind Speed 21 mph    
Max Gust Speed 25 mph    
Visibility 9 miles    
Events Rain    
T = Trace of Precipitation, MM = Missing Value Source: NWS Daily Summary

Daily Weather History Graph

Daily Weather History Graph

Search for Another Location

Airport or City:

Trip Planner

Search our weather history database for the weather conditions in past years. The results will help you decide how hot, cold, wet, or windy it might be!

Date:

Astronomy

Dec. 28, 2008 Rise Set
Actual Time 7:38 AM EST 5:25 PM EST
Civil Twilight 7:10 AM EST 5:53 PM EST
Nautical Twilight 6:38 AM EST 6:25 PM EST
Astronomical Twilight 6:07 AM EST 6:56 PM EST
Moon 8:36 AM EST (12/28) 6:30 PM EST (12/28)
Length of Visible Light 10h 43m
Length of Day
9h 47m
New Moon, 1% of the Moon is Illuminated
Dec 28
New Moon
Jan 4
First Quarter
Jan 10
Full
Jan 17
Last Quarter
Jan 26
New

Hourly Weather History & Observations

Time (EST) Temp. Windchill Dew Point Humidity Pressure Visibility Wind Dir Wind Speed Gust Speed Precip Events Conditions
12:26 AM 57.2 °F - 53.6 °F 88% 30.22 in 10.0 mi South 6.9 mph - N/A   Overcast
12:54 AM 57.0 °F - 54.0 °F 89% 30.19 in 10.0 mi South 8.1 mph - 0.00 in Rain Light Rain
1:54 AM 55.9 °F - 53.1 °F 90% 30.18 in 10.0 mi SSE 6.9 mph - 0.00 in   Overcast
2:39 AM 55.4 °F - 53.6 °F 94% 30.21 in 10.0 mi SSE 8.1 mph - 0.00 in Rain Light Rain
2:54 AM 55.9 °F - 54.0 °F 93% 30.17 in 10.0 mi SSE 8.1 mph - 0.00 in Rain Light Rain
3:36 AM 55.4 °F - 53.6 °F 94% 30.19 in 9.0 mi Calm Calm - 0.00 in Rain Light Rain
3:49 AM 55.4 °F - 55.4 °F 100% 30.18 in 5.0 mi SSE 3.5 mph - 0.01 in Rain Light Rain
3:54 AM 55.0 °F - 55.0 °F 100% 30.15 in 7.0 mi South 3.5 mph - 0.01 in Rain Light Rain
4:54 AM 55.9 °F - 55.0 °F 97% 30.14 in 10.0 mi Calm Calm - 0.01 in   Overcast
5:25 AM 55.4 °F - 53.6 °F 94% 30.17 in 10.0 mi South 8.1 mph - 0.00 in Rain Light Rain
5:32 AM 55.4 °F - 53.6 °F 94% 30.17 in 10.0 mi South 10.4 mph - 0.00 in Rain Light Rain
5:54 AM 55.9 °F - 53.1 °F 90% 30.13 in 10.0 mi South 13.8 mph - 0.00 in   Overcast
6:06 AM 55.4 °F - 53.6 °F 94% 30.18 in 10.0 mi South 10.4 mph 19.6 mph 0.00 in Rain Light Rain
6:54 AM 55.0 °F - 54.0 °F 96% 30.14 in 5.0 mi SE 6.9 mph - 0.02 in Rain Light Rain
7:11 AM 55.4 °F - 53.6 °F 94% 30.16 in 4.0 mi East 4.6 mph - 0.01 in Rain Light Rain
7:20 AM 55.4 °F - 53.6 °F 94% 30.17 in 5.0 mi SE 4.6 mph - 0.01 in Rain Light Rain
7:54 AM 55.0 °F - 54.0 °F 96% 30.14 in 10.0 mi SE 6.9 mph - 0.01 in   Overcast
8:43 AM 55.4 °F - 55.4 °F 100% 30.19 in 5.0 mi SSE 4.6 mph - N/A   Overcast
8:51 AM 57.2 °F - 55.4 °F 94% 30.18 in 5.0 mi SSE 6.9 mph - N/A   Overcast
8:54 AM 57.0 °F - 55.0 °F 93% 30.15 in 5.0 mi SSE 6.9 mph - 0.00 in Rain Light Rain
9:01 AM 57.2 °F - 55.4 °F 94% 30.18 in 5.0 mi SE 5.8 mph - 0.00 in Rain Light Rain
9:10 AM 57.2 °F - 55.4 °F 94% 30.18 in 5.0 mi SSE 8.1 mph - 0.00 in Rain Light Rain
9:54 AM 55.9 °F - 55.0 °F 97% 30.15 in 5.0 mi South 9.2 mph - 0.02 in Rain Rain
10:54 AM 57.0 °F - 55.0 °F 93% 30.12 in 9.0 mi South 4.6 mph - 0.11 in Rain Light Rain
11:52 AM 59.0 °F - 55.4 °F 88% 30.15 in 10.0 mi South 11.5 mph - 0.00 in   Scattered Clouds
11:54 AM 60.1 °F - 57.0 °F 90% 30.11 in 10.0 mi South 15.0 mph - 0.00 in   Scattered Clouds
12:54 PM 60.1 °F - 55.9 °F 86% 30.09 in 10.0 mi SW 6.9 mph - N/A   Overcast
1:16 PM 53.6 °F - 51.8 °F 94% 30.12 in 10.0 mi NW 12.7 mph 20.7 mph 0.00 in Rain Light Rain
1:27 PM 51.8 °F - 50.0 °F 94% 30.13 in 10.0 mi NNW 17.3 mph - 0.00 in   Overcast
1:54 PM 52.0 °F - 48.0 °F 86% 30.09 in 10.0 mi NNW 15.0 mph - 0.00 in   Overcast
2:54 PM 53.1 °F - 48.0 °F 83% 30.09 in 10.0 mi North 17.3 mph - N/A   Overcast
3:54 PM 53.1 °F - 46.9 °F 80% 30.10 in 10.0 mi NNW 15.0 mph 20.7 mph N/A   Mostly Cloudy
4:54 PM 51.1 °F - 46.0 °F 83% 30.10 in 10.0 mi NNW 12.7 mph - N/A   Scattered Clouds
5:54 PM 48.9 °F - 45.0 °F 86% 30.11 in 10.0 mi NNW 13.8 mph - N/A   Partly Cloudy
6:54 PM 48.0 °F - 44.1 °F 86% 30.12 in 10.0 mi NNW 18.4 mph - N/A   Clear
7:54 PM 46.0 °F 38.8 °F 41.0 °F 83% 30.14 in 10.0 mi NNW 18.4 mph - N/A   Clear
8:54 PM 46.0 °F 39.9 °F 39.9 °F 79% 30.15 in 10.0 mi NNW 13.8 mph - N/A   Clear
9:54 PM 45.0 °F 38.5 °F 39.9 °F 82% 30.14 in 10.0 mi NNW 13.8 mph - N/A   Clear
10:54 PM 45.0 °F 37.9 °F 39.0 °F 80% 30.14 in 10.0 mi NNW 16.1 mph - N/A   Clear
11:54 PM 45.0 °F 40.1 °F 39.0 °F 80% 30.14 in 10.0 mi North 9.2 mph - N/A   Clear